Regional Weather Roundup
Issued by NWS

Home | Current Version | Previous Version | Graphics & Text | Print | Product List | Glossary On
Versions: 1 2 3 4 5 6 7 8 9 10 11 12 13 14 15 16 17 18 19 20 21 22 23 24 25 26 27 28 29 30 31 32 33 34 35 36 37 38 39 40 41 42 43 44 45 46 47 48 49 50
000
ASUS43 KMKX 200000
RWRWI

WISCONSIN REGIONAL WEATHER ROUNDUP
NATIONAL WEATHER SERVICE MILWAUKEE/SULLIVAN WI
700 PM CDT SUN APR 19 2015

NOTE: "FAIR" INDICATES FEW OR NO CLOUDS BELOW 12,000 FEET WITH NO
SIGNIFICANT WEATHER AND/OR OBSTRUCTIONS TO VISIBILITY.

WIZ001-002-006>008-014>016-023>028-200100-
NORTHWEST WISCONSIN

CITY           SKY/WX    TMP DP  RH WIND       PRES   REMARKS
SUPERIOR ARPT  CLOUDY    36  35  99 NE6       29.61R FOG     WCI  31
ASHLAND        CLOUDY    47  41  80 NE5       29.55F
6HR MIN TEMP:  44; 6HR MAX TEMP:  54; 6HR PCP: TRACE;

HAYWARD        LGT RAIN  51  46  83 CALM      29.54S
6HR MIN TEMP:  51; 6HR MAX TEMP:  56; 6HR PCP:  0.02;

SIREN          CLOUDY    50  45  83 NW13      29.57F
CUMBERLAND     RAIN      48  46  93 NW10      29.56R
RICE LAKE      RAIN      50  46  86 CALM      29.57S
CHETEK         LGT RAIN  49  48  95 CALM      29.55S
LADYSMITH      LGT RAIN  49  47  94 CALM      29.55F
EAU CLAIRE     HVY RAIN  50  48  93 NW7       29.53S FOG
MENOMONIE      LGT RAIN  51  49  94 W5        29.55S
NEW RICHMOND   CLOUDY    52  45  76 NW10G16   29.57S
OSCEOLA        DRIZZLE   53  46  75 NW12      29.61R
$$

WIZ003>005-009-010-017-018-200100-
NORTH CENTRAL WISCONSIN

CITY           SKY/WX    TMP DP  RH WIND       PRES   REMARKS
MANITOWISH WTR CLOUDY    56  41  56 CALM      29.54F
ARBOR VITAE    CLOUDY    59  38  45 SE5       29.54F
WOODRUFF       CLOUDY    59  38  45 SE5       29.54F
RHINELANDER    CLOUDY    57  34  41 E12       29.55F
6HR MIN TEMP:  55; 6HR MAX TEMP:  62;

EAGLE RIVER    CLOUDY    56  32  39 E8        29.56F
LAND O LAKES   CLOUDY    55  32  41 SE6       29.57F
PHILLIPS       CLOUDY    52  47  83 CALM      29.53F
TOMAHAWK       CLOUDY    60  36  41 CALM      29.54F
MEDFORD        CLOUDY    61  39  45 SE3       29.51F
MERRILL        CLOUDY    62  38  41 E7        29.52F
$$

WIZ029-030-035-036-043>047-200100-
CENTRAL WISCONSIN

CITY           SKY/WX    TMP DP  RH WIND       PRES   REMARKS
WAUSAU         CLOUDY    61  36  39 E12       29.51F
6HR MIN TEMP:  60; 6HR MAX TEMP:  66;

MOSINEE        MOCLDY    63  36  36 E13       29.53F
MARSHFIELD     CLOUDY    62  39  42 E8        29.49F
6HR MIN TEMP:  62; 6HR MAX TEMP:  68;

STEVENS POINT  CLOUDY    62  35  37 E8        29.52F
WAUPACA        CLOUDY    66  33  29 E9        29.53F
WAUTOMA        NOT AVBL
WISC RAPIDS    CLOUDY    64  34  32 E12       29.50F
6HR MIN TEMP:  64; 6HR MAX TEMP:  72;

CAMP DOUGLAS   NOT AVBL
$$

WIZ011>013-019>022-031-037>040-048>050-200100-
NORTHEAST WISCONSIN

CITY           SKY/WX    TMP DP  RH WIND       PRES   REMARKS
ANTIGO         CLOUDY    55  35  46 E9        29.56F
SHAWANO        CLOUDY    59  36  42 E13       29.57F
OCONTO         CLOUDY    53  32  44 NE7G16    29.57F
STURGEON BAY   CLOUDY    45  34  65 NW6       29.59F
6HR MIN TEMP:  45; 6HR MAX TEMP:  59;

GREEN BAY      CLOUDY    51  36  56 NE17      29.56F
6HR MIN TEMP:  51; 6HR MAX TEMP:  67;

MANITOWOC      NOT AVBL
APPLETON       PTCLDY    63  28  27 E7        29.54F
CLINTONVILLE   CLOUDY    59  32  36 E12       29.55F
OSHKOSH        CLOUDY    61  34  36 E12       29.52F
6HR MIN TEMP:  61; 6HR MAX TEMP:  68;

$$

WIZ032>034-041-042-053>061-200100-
SOUTHWEST WISCONSIN

CITY           SKY/WX    TMP DP  RH WIND       PRES   REMARKS
LA CROSSE      LGT RAIN  54  50  86 NW9       29.49F FOG
6HR MIN TEMP:  54; 6HR MAX TEMP:  57; 6HR PCP:  0.08;

SPARTA         CLOUDY    63  43  47 NW7       29.48F
VIROQUA        CLOUDY    63  45  52 N6        29.46F
BOSCOBEL       CLOUDY    73  43  33 NE5       29.41F
6HR MIN TEMP:  69; 6HR MAX TEMP:  78;

PRAIRIE DU CHI CLOUDY    64  47  54 NW13      29.43F
PLATTEVILLE    CLOUDY    63  47  56 SE14      29.44F
$$

WIZ056-057-062-063-064-067-068-200100-
SOUTH CENTRAL WISCONSIN

CITY           SKY/WX    TMP DP  RH WIND       PRES   REMARKS
REEDSBURG      CLOUDY    68  41  37 E9        29.46F
BARABOO/DELLS  CLOUDY    66  35  31 SE13G20   29.47F
LONE ROCK      NOT AVBL
MINERAL POINT  CLOUDY    68  43  40 SE9       29.45F
MADISON        CLOUDY    64  34  32 E16G22    29.47F
6HR MIN TEMP:  64; 6HR MAX TEMP:  74;

MIDDLETON      CLOUDY    65  32  29 E14       29.48F
WATERTOWN      CLOUDY    59  35  40 E13G20    29.49F
MONROE         CLOUDY    63  39  42 E16       29.46F
JANESVILLE     LGT RAIN  55  46  71 E12       29.48F
$$

WIZ051-052-058>065-066-070>072-200100-
SOUTHEAST WISCONSIN

CITY           SKY/WX    TMP DP  RH WIND       PRES   REMARKS
MILWAUKEE      LGT RAIN  42  35  76 NE8       29.53F
6HR MIN TEMP:  42; 6HR MAX TEMP:  55; 6HR PCP:  0.01;

WAUKESHA       CLOUDY    50  36  57 E12       29.53F
MILWAUKEE/TIMM CLOUDY    50  34  53 E7        29.54F
RACINE         LGT RAIN  44  40  85 NE8       29.53F FOG
6HR MIN TEMP:  43; 6HR MAX TEMP:  60; 6HR PCP:  0.06;

BURLINGTON     LGT RAIN  47  39  73 E10       29.51F
KENOSHA        LGT RAIN  47  43  86 NE10      29.50F FOG
6HR MIN TEMP:  47; 6HR MAX TEMP:  63; 6HR PCP:  0.08;

FOND DU LAC    CLOUDY    61  32  33 SE13G24   29.51F
6HR MIN TEMP:  61; 6HR MAX TEMP:  69;

SHEBOYGAN      CLOUDY    50  35  56 NE10      29.54F
6HR MIN TEMP:  50; 6HR MAX TEMP:  63;

WEST BEND      CLOUDY    54  30  40 E10       29.53F
JUNEAU         CLOUDY    59  34  39 E17       29.52F
$$

LSZ147-162-200100-
LAKE SUPERIOR

STATION/POSITION TIME  TEMP    WIND        PRES    WAVE
                       AIR SEA DIR/SP/G            HT/PER
                 (UTC) (F)     (DEG/KT/KT) (MB)    (FT/S)
DEVILS ISLAND    2300   36      30/  9/ 11 1002.2F
PORT WING        2340   36      30/ 10/ 11 1002.0F
SAXON HARBOR     2300   43      70/  7/  9 1001.0
$$

LMZ867-665-643>646-200100-
LAKE MICHIGAN

STATION/POSITION TIME  TEMP    WIND        PRES    WAVE
                       AIR SEA DIR/SP/G            HT/PER
                 (UTC) (F)     (DEG/KT/KT) (MB)    (FT/S)
CHAMBERS ISLAND  2300   39     360/ 13/ 15 1003.4F
NORTHPORT PIER   2300   44      60/ 13/ 16 1003.4F
KEWAUNEE LAKESHO 2300   46      30/ 13/ 17 1001.3F
SHEBOYGAN LAKESH 2300   42      20/ 11/ 12 1002.1F
PORT WASHINGTON  2340   50      50/  8/ 10 1001.0F
MILWAUKEE LAKESH 2300   47      10/ 13/ 17   N/A
KENOSHA   LAKESH 2300   44      20/ 13/ 15 1000.3F
$$

TC  - TEMPERATURE IN CELSIUS
VSB - VISIBILITY IN STATUTE MILES
WCI - WIND CHILL INDEX
HX  - HEAT INDEX




USA.gov is the U.S. government's official web portal to all federal, state and local government web resources and services.